,,,PA_Meas_PMT16A,,PR_Meas_QMR101_102,,RH_Meas_QMH101,,SR_Meas_QMS101,,TA_Meas_QMH101,,GenWind,,GenWind,
date,time,status,PA,status,PR,status,RH,status,SR,status,TA,status,DirAvg,status,SpdAvg,
2011-09-02, 00:00:04,VALID,1008.599,VALID,0.0,VALID,104.0,VALID,0.106,VALID,25.507,VALID,286.0,VALID,0.084,
2011-09-02, 00:01:04,VALID,1008.573,VALID,0.0,VALID,104.0,VALID,0.106,VALID,25.485,VALID,286.0,VALID,0.0,
2011-09-02, 00:02:04,VALID,1008.528,VALID,0.0,VALID,104.0,VALID,0.106,VALID,25.485,VALID,286.0,VALID,0.0,
2011-09-02, 00:03:04,VALID,1008.503,VALID,0.0,VALID,104.0,VALID,0.106,VALID,25.485,VALID,286.0,VALID,0.157,
2011-09-02, 00:04:04,VALID,1008.497,VALID,0.0,VALID,104.0,VALID,0.0,VALID,25.505,VALID,286.0,VALID,0.046,
2011-09-02, 00:05:04,VALID,1008.448,VALID,0.0,VALID,104.0,VALID,0.0,VALID,25.487,VALID,286.0,VALID,0.297,
2011-09-02, 00:06:04,VALID,1008.438,VALID,0.0,VALID,104.0,VALID,0.0,VALID,25.487,VALID,286.0,VALID,0.341,
2011-09-02, 00:07:04,VALID,1008.414,VALID,0.0,VALID,104.0,VALID,0.0,VALID,25.509,VALID,286.0,VALID,0.38,
2011-09-02, 00:08:04,VALID,1008.412,VALID,0.0,VALID,104.0,VALID,0.0,VALID,25.487,VALID,301.0,VALID,0.666,
2011-09-02, 00:09:04,VALID,1008.372,VALID,0.0,VALID,104.0,VALID,0.0,VALID,25.507,VALID,306.0,VALID,0.641,
2011-09-02, 00:10:04,VALID,1008.361,VALID,0.0,VALID,103.939,VALID,0.0,VALID,25.528,VALID,329.0,VALID,0.595,
2011-09-02, 00:11:04,VALID,1008.361,VALID,0.0,VALID,103.924,VALID,0.0,VALID,25.507,VALID,329.0,VALID,0.48,
2011-09-02, 00:12:04,VALID,1008.331,VALID,0.0,VALID,103.909,VALID,0.0,VALID,25.507,VALID,329.0,VALID,0.265,
2011-09-02, 00:13:04,VALID,1008.32,VALID,0.0,VALID,103.909,VALID,0.0,VALID,25.528,VALID,329.0,VALID,0.228,
2011-09-02, 00:14:04,VALID,1008.271,VALID,0.0,VALID,103.886,VALID,0.0,VALID,25.507,VALID,329.0,VALID,0.273,
2011-09-02, 00:15:04,VALID,1008.269,VALID,0.0,VALID,103.84,VALID,0.0,VALID,25.487,VALID,329.0,VALID,0.122,
2011-09-02, 00:16:04,VALID,1008.264,VALID,0.0,VALID,103.855,VALID,0.0,VALID,25.487,VALID,329.0,VALID,0.318,
2011-09-02, 00:17:04,VALID,1008.266,VALID,0.0,VALID,103.817,VALID,0.0,VALID,25.487,VALID,329.0,VALID,0.394,
2011-09-02, 00:18:04,VALID,1008.25,VALID,0.0,VALID,103.809,VALID,0.0,VALID,25.468,VALID,329.0,VALID,0.494,
2011-09-02, 00:19:04,VALID,1008.275,VALID,0.0,VALID,103.779,VALID,0.0,VALID,25.509,VALID,329.0,VALID,0.286,
2011-09-02, 00:20:04,VALID,1008.293,VALID,0.0,VALID,103.794,VALID,0.106,VALID,25.487,VALID,329.0,VALID,0.0,
2011-09-02, 00:21:04,VALID,1008.277,VALID,0.0,VALID,103.809,VALID,0.0,VALID,25.468,VALID,329.0,VALID,0.436,
2011-09-02, 00:22:04,VALID,1008.31,VALID,0.0,VALID,103.832,VALID,0.106,VALID,25.468,VALID,329.0,VALID,0.244,
2011-09-02, 00:23:04,VALID,1008.303,VALID,0.0,VALID,103.848,VALID,0.106,VALID,25.446,VALID,329.0,VALID,0.325,
2011-09-02, 00:24:04,VALID,1008.255,VALID,0.0,VALID,103.825,VALID,0.106,VALID,25.429,VALID,329.0,VALID,0.546,
2011-09-02, 00:25:04,VALID,1008.276,VALID,0.0,VALID,103.848,VALID,0.106,VALID,25.39,VALID,329.0,VALID,0.455,
2011-09-02, 00:26:04,VALID,1008.263,VALID,0.0,VALID,103.893,VALID,0.106,VALID,25.37,VALID,329.0,VALID,0.23,
2011-09-02, 00:27:04,VALID,1008.255,VALID,0.0,VALID,103.962,VALID,0.0,VALID,25.31,VALID,329.0,VALID,0.116,
2011-09-02, 00:28:04,VALID,1008.234,VALID,0.0,VALID,104.0,VALID,0.106,VALID,25.29,VALID,329.0,VALID,0.171,
2011-09-02, 00:29:04,VALID,1008.207,VALID,0.0,VALID,104.0,VALID,0.0,VALID,25.271,VALID,329.0,VALID,0.0,
2011-09-02, 00:30:04,VALID,1008.182,VALID,0.0,VALID,104.0,VALID,0.106,VALID,25.292,VALID,329.0,VALID,0.0,
2011-09-02, 00:31:04,VALID,1008.164,VALID,0.0,VALID,104.0,VALID,0.106,VALID,25.251,VALID,329.0,VALID,0.0,
2011-09-02, 00:32:04,VALID,1008.179,VALID,0.0,VALID,104.0,VALID,0.106,VALID,25.273,VALID,329.0,VALID,0.0,
2011-09-02, 00:33:04,VALID,1008.129,VALID,0.0,VALID,104.0,VALID,0.106,VALID,25.232,VALID,329.0,VALID,0.546,
2011-09-02, 00:34:04,VALID,1008.14,VALID,0.0,VALID,104.0,VALID,0.106,VALID,25.232,VALID,329.0,VALID,0.431,
2011-09-02, 00:35:04,VALID,1008.116,VALID,0.0,VALID,104.0,VALID,0.0,VALID,25.253,VALID,329.0,VALID,0.254,
2011-09-02, 00:36:04,VALID,1008.095,VALID,0.0,VALID,104.0,VALID,0.106,VALID,25.232,VALID,329.0,VALID,0.502,
2011-09-02, 00:37:04,VALID,1008.108,VALID,0.0,VALID,104.0,VALID,0.106,VALID,25.253,VALID,329.0,VALID,0.341,
2011-09-02, 00:38:04,VALID,1008.109,VALID,0.0,VALID,104.0,VALID,0.106,VALID,25.232,VALID,329.0,VALID,0.424,
2011-09-02, 00:39:04,VALID,1008.095,VALID,0.0,VALID,104.0,VALID,0.106,VALID,25.212,VALID,329.0,VALID,0.27,
2011-09-02, 00:40:04,VALID,1008.108,VALID,0.0,VALID,104.0,VALID,0.106,VALID,25.234,VALID,329.0,VALID,0.192,
2011-09-02, 00:41:04,VALID,1008.101,VALID,0.0,VALID,104.0,VALID,0.106,VALID,25.173,VALID,329.0,VALID,0.148,
2011-09-02, 00:42:04,VALID,1008.125,VALID,0.0,VALID,104.0,VALID,0.106,VALID,25.173,VALID,329.0,VALID,0.183,
2011-09-02, 00:43:04,VALID,1008.079,VALID,0.0,VALID,104.0,VALID,0.106,VALID,25.154,VALID,329.0,VALID,0.146,
2011-09-02, 00:44:04,VALID,1008.118,VALID,0.0,VALID,104.0,VALID,0.106,VALID,25.154,VALID,329.0,VALID,0.362,
2011-09-02, 00:45:04,VALID,1008.084,VALID,0.0,VALID,104.0,VALID,0.106,VALID,25.156,VALID,329.0,VALID,0.214,
2011-09-02, 00:46:04,VALID,1008.09,VALID,0.0,VALID,104.0,VALID,0.0,VALID,25.136,VALID,329.0,VALID,0.391,
2011-09-02, 00:47:04,VALID,1008.085,VALID,0.0,VALID,104.0,VALID,0.106,VALID,25.136,VALID,329.0,VALID,0.141,
2011-09-02, 00:48:04,VALID,1008.079,VALID,0.0,VALID,104.0,VALID,0.106,VALID,25.117,VALID,329.0,VALID,0.418,
2011-09-02, 00:49:04,VALID,1008.065,VALID,0.0,VALID,104.0,VALID,0.106,VALID,25.117,VALID,329.0,VALID,0.274,
2011-09-02, 00:50:04,VALID,1008.048,VALID,0.0,VALID,104.0,VALID,0.106,VALID,25.097,VALID,329.0,VALID,0.277,
2011-09-02, 00:51:04,VALID,1008.061,VALID,0.0,VALID,104.0,VALID,0.0,VALID,25.076,VALID,329.0,VALID,0.107,
2011-09-02, 00:52:04,VALID,1008.052,VALID,0.0,VALID,104.0,VALID,0.0,VALID,25.056,VALID,329.0,VALID,0.214,
2011-09-02, 00:53:04,VALID,1008.086,VALID,0.0,VALID,104.0,VALID,0.0,VALID,25.056,VALID,329.0,VALID,0.161,
2011-09-02, 00:54:04,VALID,1008.048,VALID,0.0,VALID,104.0,VALID,0.0,VALID,25.078,VALID,329.0,VALID,0.334,
2011-09-02, 00:55:04,VALID,1008.064,VALID,0.0,VALID,104.0,VALID,0.106,VALID,25.037,VALID,329.0,VALID,0.355,
2011-09-02, 00:56:04,VALID,1008.07,VALID,0.0,VALID,104.0,VALID,0.0,VALID,25.037,VALID,329.0,VALID,0.363,
2011-09-02, 00:57:04,VALID,1008.086,VALID,0.0,VALID,104.0,VALID,0.106,VALID,25.058,VALID,329.0,VALID,0.368,
2011-09-02, 00:58:04,VALID,1008.077,VALID,0.0,VALID,104.0,VALID,0.106,VALID,25.017,VALID,329.0,VALID,0.361,
2011-09-02, 00:59:04,VALID,1008.11,VALID,0.0,VALID,104.0,VALID,0.106,VALID,25.017,VALID,329.0,VALID,0.296,
2011-09-02, 01:00:04,VALID,1008.07,VALID,0.0,VALID,104.0,VALID,0.106,VALID,24.998,VALID,329.0,VALID,0.382,
2011-09-02, 01:01:04,VALID,1008.082,VALID,0.0,VALID,104.0,VALID,0.0,VALID,24.98,VALID,329.0,VALID,0.493,
2011-09-02, 01:02:04,VALID,1008.064,VALID,0.0,VALID,104.0,VALID,0.106,VALID,24.959,VALID,329.0,VALID,0.45,
2011-09-02, 01:03:04,VALID,1008.081,VALID,0.0,VALID,104.0,VALID,0.106,VALID,24.959,VALID,329.0,VALID,0.402,
2011-09-02, 01:04:04,VALID,1008.076,VALID,0.0,VALID,104.0,VALID,0.106,VALID,24.9,VALID,329.0,VALID,0.31,
2011-09-02, 01:05:04,VALID,1008.025,VALID,0.0,VALID,104.0,VALID,0.0,VALID,24.881,VALID,329.0,VALID,0.22,
2011-09-02, 01:06:04,VALID,1008.032,VALID,0.0,VALID,104.0,VALID,0.0,VALID,24.922,VALID,329.0,VALID,0.298,
2011-09-02, 01:07:04,VALID,1008.045,VALID,0.0,VALID,104.0,VALID,0.0,VALID,24.902,VALID,329.0,VALID,0.182,
2011-09-02, 01:08:04,VALID,1008.014,VALID,0.0,VALID,104.0,VALID,0.106,VALID,24.902,VALID,329.0,VALID,0.166,
2011-09-02, 01:09:04,VALID,1008.047,VALID,0.0,VALID,104.0,VALID,0.106,VALID,24.861,VALID,329.0,VALID,0.215,
2011-09-02, 01:10:04,VALID,1008.02,VALID,0.0,VALID,104.0,VALID,0.106,VALID,24.883,VALID,329.0,VALID,0.169,
2011-09-02, 01:11:04,VALID,1008.049,VALID,0.0,VALID,104.0,VALID,0.0,VALID,24.863,VALID,329.0,VALID,0.138,
2011-09-02, 01:12:04,VALID,1008.049,VALID,0.0,VALID,104.0,VALID,0.106,VALID,24.822,VALID,329.0,VALID,0.063,
2011-09-02, 01:13:04,VALID,1008.032,VALID,0.0,VALID,104.0,VALID,0.106,VALID,24.822,VALID,329.0,VALID,0.191,
2011-09-02, 01:14:04,VALID,1008.007,VALID,0.0,VALID,104.0,VALID,0.106,VALID,24.803,VALID,329.0,VALID,0.095,
2011-09-02, 01:15:04,VALID,1007.988,VALID,0.0,VALID,104.0,VALID,0.106,VALID,24.783,VALID,329.0,VALID,0.0,
2011-09-02, 01:16:04,VALID,1007.996,VALID,0.0,VALID,104.0,VALID,0.0,VALID,24.803,VALID,329.0,VALID,0.0,
2011-09-02, 01:17:04,VALID,1007.981,VALID,0.0,VALID,104.0,VALID,0.106,VALID,24.803,VALID,329.0,VALID,0.0,
2011-09-02, 01:18:04,VALID,1007.97,VALID,0.0,VALID,104.0,VALID,0.106,VALID,24.783,VALID,329.0,VALID,0.0,
2011-09-02, 01:19:04,VALID,1008.0,VALID,0.0,VALID,104.0,VALID,0.106,VALID,24.783,VALID,329.0,VALID,0.0,
2011-09-02, 01:20:04,VALID,1007.989,VALID,0.0,VALID,104.0,VALID,0.0,VALID,24.764,VALID,329.0,VALID,0.0,
2011-09-02, 01:21:04,VALID,1007.977,VALID,0.0,VALID,104.0,VALID,0.106,VALID,24.764,VALID,329.0,VALID,0.011,
2011-09-02, 01:22:04,VALID,1007.967,VALID,0.0,VALID,104.0,VALID,0.106,VALID,24.745,VALID,329.0,VALID,0.409,
2011-09-02, 01:23:04,VALID,1008.002,VALID,0.0,VALID,104.0,VALID,0.0,VALID,24.746,VALID,329.0,VALID,0.326,
2011-09-02, 01:24:04,VALID,1007.976,VALID,0.0,VALID,104.0,VALID,0.106,VALID,24.706,VALID,329.0,VALID,0.454,
2011-09-02, 01:25:04,VALID,1007.985,VALID,0.0,VALID,104.0,VALID,0.106,VALID,24.686,VALID,329.0,VALID,0.287,
2011-09-02, 01:26:04,VALID,1007.983,VALID,0.0,VALID,104.0,VALID,0.106,VALID,24.686,VALID,329.0,VALID,0.272,
2011-09-02, 01:27:04,VALID,1007.973,VALID,0.0,VALID,104.0,VALID,0.106,VALID,24.647,VALID,329.0,VALID,0.411,
2011-09-02, 01:28:04,VALID,1007.971,VALID,0.0,VALID,104.0,VALID,0.106,VALID,24.647,VALID,329.0,VALID,0.359,
2011-09-02, 01:29:04,VALID,1007.985,VALID,0.0,VALID,104.0,VALID,0.106,VALID,24.628,VALID,329.0,VALID,0.527,
2011-09-02, 01:30:04,VALID,1007.978,VALID,0.0,VALID,104.0,VALID,0.0,VALID,24.647,VALID,347.0,VALID,0.44,
2011-09-02, 01:31:04,VALID,1007.987,VALID,0.0,VALID,104.0,VALID,0.212,VALID,24.628,VALID,347.0,VALID,0.202,
2011-09-02, 01:32:04,VALID,1007.97,VALID,0.0,VALID,104.0,VALID,0.106,VALID,24.628,VALID,347.0,VALID,0.122,
2011-09-02, 01:33:04,VALID,1007.978,VALID,0.0,VALID,104.0,VALID,0.106,VALID,24.589,VALID,347.0,VALID,0.189,
2011-09-02, 01:34:04,VALID,1008.021,VALID,0.0,VALID,104.0,VALID,0.106,VALID,24.629,VALID,347.0,VALID,0.209,
2011-09-02, 01:35:04,VALID,1008.024,VALID,0.0,VALID,104.0,VALID,0.0,VALID,24.61,VALID,347.0,VALID,0.27,
2011-09-02, 01:36:04,VALID,1007.99,VALID,0.0,VALID,104.0,VALID,0.0,VALID,24.629,VALID,304.0,VALID,0.707,
2011-09-02, 01:37:04,VALID,1007.979,VALID,0.0,VALID,104.0,VALID,0.0,VALID,24.649,VALID,297.0,VALID,0.429,
2011-09-02, 01:38:04,VALID,1008.005,VALID,0.0,VALID,104.0,VALID,0.0,VALID,24.649,VALID,292.0,VALID,0.522,
2011-09-02, 01:39:04,VALID,1007.947,VALID,0.0,VALID,104.0,VALID,0.0,VALID,24.649,VALID,288.0,VALID,0.464,
2011-09-02, 01:40:04,VALID,1007.954,VALID,0.0,VALID,104.0,VALID,0.0,VALID,24.668,VALID,288.0,VALID,0.286,
2011-09-02, 01:41:04,VALID,1007.944,VALID,0.0,VALID,104.0,VALID,0.0,VALID,24.668,VALID,288.0,VALID,0.363,
2011-09-02, 01:42:04,VALID,1007.937,VALID,0.0,VALID,104.0,VALID,0.0,VALID,24.668,VALID,288.0,VALID,0.294,
2011-09-02, 01:43:04,VALID,1007.91,VALID,0.0,VALID,104.0,VALID,0.0,VALID,24.668,VALID,288.0,VALID,0.276,
2011-09-02, 01:44:04,VALID,1007.929,VALID,0.0,VALID,104.0,VALID,0.0,VALID,24.649,VALID,288.0,VALID,0.217,
2011-09-02, 01:45:04,VALID,1007.912,VALID,0.0,VALID,104.0,VALID,0.0,VALID,24.629,VALID,288.0,VALID,0.283,
2011-09-02, 01:46:04,VALID,1007.896,VALID,0.0,VALID,104.0,VALID,0.0,VALID,24.61,VALID,288.0,VALID,0.18,
2011-09-02, 01:47:04,VALID,1007.898,VALID,0.0,VALID,104.0,VALID,0.0,VALID,24.61,VALID,288.0,VALID,0.103,
2011-09-02, 01:48:04,VALID,1007.885,VALID,0.0,VALID,104.0,VALID,0.0,VALID,24.59,VALID,288.0,VALID,0.08,
2011-09-02, 01:49:04,VALID,1007.879,VALID,0.0,VALID,104.0,VALID,0.0,VALID,24.59,VALID,288.0,VALID,0.141,
2011-09-02, 01:50:04,VALID,1007.855,VALID,0.0,VALID,104.0,VALID,0.0,VALID,24.571,VALID,288.0,VALID,0.152,
2011-09-02, 01:51:04,VALID,1007.829,VALID,0.0,VALID,104.0,VALID,0.0,VALID,24.551,VALID,288.0,VALID,0.241,
2011-09-02, 01:52:04,VALID,1007.802,VALID,0.0,VALID,104.0,VALID,0.0,VALID,24.551,VALID,288.0,VALID,0.277,
2011-09-02, 01:53:04,VALID,1007.794,VALID,0.0,VALID,104.0,VALID,0.0,VALID,24.573,VALID,288.0,VALID,0.189,
2011-09-02, 01:54:04,VALID,1007.774,VALID,0.0,VALID,104.0,VALID,0.0,VALID,24.551,VALID,288.0,VALID,0.138,
2011-09-02, 01:55:04,VALID,1007.784,VALID,0.0,VALID,104.0,VALID,0.0,VALID,24.532,VALID,288.0,VALID,0.0,
2011-09-02, 01:56:04,VALID,1007.77,VALID,0.0,VALID,104.0,VALID,0.0,VALID,24.551,VALID,288.0,VALID,0.0,
2011-09-02, 01:57:04,VALID,1007.782,VALID,0.0,VALID,104.0,VALID,0.0,VALID,24.551,VALID,288.0,VALID,0.0,
2011-09-02, 01:58:04,VALID,1007.777,VALID,0.0,VALID,104.0,VALID,0.0,VALID,24.532,VALID,288.0,VALID,0.0,
2011-09-02, 01:59:04,VALID,1007.811,VALID,0.0,VALID,104.0,VALID,0.0,VALID,24.551,VALID,288.0,VALID,0.0,
2011-09-02, 02:00:04,VALID,1007.817,VALID,0.0,VALID,104.0,VALID,0.0,VALID,24.553,VALID,288.0,VALID,0.216,
2011-09-02, 02:01:04,VALID,1007.824,VALID,0.0,VALID,104.0,VALID,0.0,VALID,24.512,VALID,288.0,VALID,0.293,
2011-09-02, 02:02:04,VALID,1007.812,VALID,0.0,VALID,104.0,VALID,0.0,VALID,24.474,VALID,288.0,VALID,0.338,
2011-09-02, 02:03:04,VALID,1007.82,VALID,0.0,VALID,104.0,VALID,0.0,VALID,24.454,VALID,288.0,VALID,0.317,
2011-09-02, 02:04:04,VALID,1007.815,VALID,0.0,VALID,104.0,VALID,0.0,VALID,24.415,VALID,288.0,VALID,0.238,
2011-09-02, 02:05:04,VALID,1007.846,VALID,0.0,VALID,104.0,VALID,0.0,VALID,24.376,VALID,288.0,VALID,0.136,
2011-09-02, 02:06:04,VALID,1007.839,VALID,0.0,VALID,104.0,VALID,0.0,VALID,24.357,VALID,288.0,VALID,0.117,
2011-09-02, 02:07:04,VALID,1007.84,VALID,0.0,VALID,104.0,VALID,0.0,VALID,24.339,VALID,288.0,VALID,0.0,
2011-09-02, 02:08:04,VALID,1007.861,VALID,0.0,VALID,104.0,VALID,0.0,VALID,24.318,VALID,288.0,VALID,0.0,
2011-09-02, 02:09:04,VALID,1007.89,VALID,0.0,VALID,104.0,VALID,0.0,VALID,24.318,VALID,288.0,VALID,0.0,
2011-09-02, 02:10:04,VALID,1007.912,VALID,0.0,VALID,104.0,VALID,0.0,VALID,24.318,VALID,288.0,VALID,0.0,
2011-09-02, 02:11:04,VALID,1007.924,VALID,0.0,VALID,104.0,VALID,0.0,VALID,24.298,VALID,288.0,VALID,0.0,
2011-09-02, 02:12:04,VALID,1007.958,VALID,0.0,VALID,104.0,VALID,0.0,VALID,24.298,VALID,288.0,VALID,0.0,
2011-09-02, 02:13:04,VALID,1007.937,VALID,0.0,VALID,104.0,VALID,0.0,VALID,24.319,VALID,288.0,VALID,0.0,
2011-09-02, 02:14:04,VALID,1007.951,VALID,0.0,VALID,104.0,VALID,0.0,VALID,24.298,VALID,288.0,VALID,0.0,
2011-09-02, 02:15:04,VALID,1007.955,VALID,0.0,VALID,104.0,VALID,0.0,VALID,24.279,VALID,288.0,VALID,0.0,
2011-09-02, 02:16:04,VALID,1007.958,VALID,0.0,VALID,104.0,VALID,0.0,VALID,24.279,VALID,288.0,VALID,0.127,
2011-09-02, 02:17:04,VALID,1007.938,VALID,0.0,VALID,104.0,VALID,0.0,VALID,24.279,VALID,288.0,VALID,0.0,
2011-09-02, 02:18:04,VALID,1007.955,VALID,0.0,VALID,104.0,VALID,0.0,VALID,24.259,VALID,288.0,VALID,0.0,
2011-09-02, 02:19:04,VALID,1007.958,VALID,0.0,VALID,104.0,VALID,0.0,VALID,24.24,VALID,288.0,VALID,0.0,
2011-09-02, 02:20:04,VALID,1007.985,VALID,0.0,VALID,104.0,VALID,0.0,VALID,24.24,VALID,288.0,VALID,0.0,
2011-09-02, 02:21:04,VALID,1007.931,VALID,0.0,VALID,104.0,VALID,0.0,VALID,24.24,VALID,288.0,VALID,0.0,
2011-09-02, 02:22:04,VALID,1007.974,VALID,0.0,VALID,104.0,VALID,0.0,VALID,24.22,VALID,288.0,VALID,0.0,
2011-09-02, 02:23:04,VALID,1007.967,VALID,0.0,VALID,104.0,VALID,0.0,VALID,24.22,VALID,288.0,VALID,0.0,
2011-09-02, 02:24:04,VALID,1007.997,VALID,0.0,VALID,104.0,VALID,0.0,VALID,24.24,VALID,288.0,VALID,0.177,
2011-09-02, 02:25:04,VALID,1007.969,VALID,0.0,VALID,104.0,VALID,0.0,VALID,24.259,VALID,288.0,VALID,0.325,
2011-09-02, 02:26:04,VALID,1007.975,VALID,0.0,VALID,104.0,VALID,0.0,VALID,24.279,VALID,288.0,VALID,0.18,
2011-09-02, 02:27:04,VALID,1007.979,VALID,0.0,VALID,104.0,VALID,0.0,VALID,24.279,VALID,288.0,VALID,0.349,
2011-09-02, 02:28:04,VALID,1007.977,VALID,0.0,VALID,104.0,VALID,0.0,VALID,24.318,VALID,288.0,VALID,0.0,
2011-09-02, 02:29:04,VALID,1007.96,VALID,0.0,VALID,104.0,VALID,0.0,VALID,24.339,VALID,288.0,VALID,0.0,
2011-09-02, 02:30:04,VALID,1007.969,VALID,0.0,VALID,104.0,VALID,0.0,VALID,24.357,VALID,288.0,VALID,0.089,
2011-09-02, 02:31:04,VALID,1007.955,VALID,0.0,VALID,104.0,VALID,0.0,VALID,24.357,VALID,288.0,VALID,0.0,
2011-09-02, 02:32:04,VALID,1007.933,VALID,0.0,VALID,104.0,VALID,0.0,VALID,24.357,VALID,288.0,VALID,0.0,
2011-09-02, 02:33:04,VALID,1007.928,VALID,0.0,VALID,104.0,VALID,0.0,VALID,24.376,VALID,288.0,VALID,0.0,
2011-09-02, 02:34:04,VALID,1007.913,VALID,0.0,VALID,104.0,VALID,0.0,VALID,24.376,VALID,288.0,VALID,0.0,
2011-09-02, 02:35:04,VALID,1007.911,VALID,0.0,VALID,104.0,VALID,0.0,VALID,24.357,VALID,288.0,VALID,0.0,
2011-09-02, 02:36:04,VALID,1007.894,VALID,0.0,VALID,104.0,VALID,0.0,VALID,24.357,VALID,288.0,VALID,0.0,
2011-09-02, 02:37:04,VALID,1007.899,VALID,0.0,VALID,104.0,VALID,0.0,VALID,24.357,VALID,288.0,VALID,0.0,
2011-09-02, 02:38:04,VALID,1007.883,VALID,0.0,VALID,104.0,VALID,0.0,VALID,24.357,VALID,288.0,VALID,0.013,
2011-09-02, 02:39:04,VALID,1007.897,VALID,0.0,VALID,104.0,VALID,0.0,VALID,24.337,VALID,288.0,VALID,0.552,
2011-09-02, 02:40:04,VALID,1007.898,VALID,0.0,VALID,104.0,VALID,0.0,VALID,24.318,VALID,288.0,VALID,0.527,
2011-09-02, 02:41:04,VALID,1007.922,VALID,0.0,VALID,104.0,VALID,0.0,VALID,24.3,VALID,288.0,VALID,0.391,
2011-09-02, 02:42:04,VALID,1007.934,VALID,0.0,VALID,104.0,VALID,0.0,VALID,24.259,VALID,288.0,VALID,0.166,
2011-09-02, 02:43:04,VALID,1007.957,VALID,0.0,VALID,104.0,VALID,0.0,VALID,24.28,VALID,288.0,VALID,0.0,
2011-09-02, 02:44:04,VALID,1007.943,VALID,0.0,VALID,104.0,VALID,0.0,VALID,24.259,VALID,288.0,VALID,0.0,
2011-09-02, 02:45:04,VALID,1007.955,VALID,0.0,VALID,104.0,VALID,0.0,VALID,24.241,VALID,288.0,VALID,0.0,
2011-09-02, 02:46:04,VALID,1007.927,VALID,0.0,VALID,104.0,VALID,0.0,VALID,24.241,VALID,288.0,VALID,0.0,
2011-09-02, 02:47:05,VALID,1007.934,VALID,0.0,VALID,104.0,VALID,0.0,VALID,24.201,VALID,288.0,VALID,0.0,
2011-09-02, 02:48:05,VALID,1007.932,VALID,0.0,VALID,104.0,VALID,0.0,VALID,24.201,VALID,288.0,VALID,0.0,
2011-09-02, 02:49:05,VALID,1007.945,VALID,0.0,VALID,104.0,VALID,0.0,VALID,24.201,VALID,288.0,VALID,0.089,
2011-09-02, 02:50:05,VALID,1007.954,VALID,0.0,VALID,104.0,VALID,0.0,VALID,24.22,VALID,288.0,VALID,0.355,
2011-09-02, 02:51:05,VALID,1007.935,VALID,0.0,VALID,104.0,VALID,0.0,VALID,24.259,VALID,288.0,VALID,0.115,
2011-09-02, 02:52:05,VALID,1007.933,VALID,0.0,VALID,104.0,VALID,0.0,VALID,24.3,VALID,288.0,VALID,0.0,
2011-09-02, 02:53:05,VALID,1007.945,VALID,0.0,VALID,104.0,VALID,0.0,VALID,24.3,VALID,288.0,VALID,0.0,
2011-09-02, 02:54:05,VALID,1007.956,VALID,0.0,VALID,104.0,VALID,0.0,VALID,24.318,VALID,288.0,VALID,0.368,
2011-09-02, 02:55:05,VALID,1007.956,VALID,0.0,VALID,104.0,VALID,0.0,VALID,24.358,VALID,288.0,VALID,0.295,
2011-09-02, 02:56:05,VALID,1007.947,VALID,0.0,VALID,104.0,VALID,0.0,VALID,24.357,VALID,288.0,VALID,0.199,
2011-09-02, 02:57:05,VALID,1007.957,VALID,0.0,VALID,104.0,VALID,0.0,VALID,24.337,VALID,288.0,VALID,0.029,
2011-09-02, 02:58:05,VALID,1007.943,VALID,0.0,VALID,104.0,VALID,0.0,VALID,24.357,VALID,288.0,VALID,0.0,
2011-09-02, 02:59:05,VALID,1007.925,VALID,0.0,VALID,104.0,VALID,0.0,VALID,24.358,VALID,288.0,VALID,0.0,
2011-09-02, 03:00:05,VALID,1007.878,VALID,0.0,VALID,104.0,VALID,0.0,VALID,24.318,VALID,288.0,VALID,0.0,
2011-09-02, 03:01:05,VALID,1007.907,VALID,0.0,VALID,104.0,VALID,0.0,VALID,24.337,VALID,288.0,VALID,0.0,
2011-09-02, 03:02:05,VALID,1007.907,VALID,0.0,VALID,104.0,VALID,0.0,VALID,24.318,VALID,288.0,VALID,0.254,
2011-09-02, 03:03:05,VALID,1007.906,VALID,0.0,VALID,104.0,VALID,0.0,VALID,24.319,VALID,288.0,VALID,0.169,
2011-09-02, 03:04:05,VALID,1007.9,VALID,0.0,VALID,104.0,VALID,0.0,VALID,24.298,VALID,288.0,VALID,0.112,
2011-09-02, 03:05:05,VALID,1007.896,VALID,0.0,VALID,104.0,VALID,0.0,VALID,24.3,VALID,288.0,VALID,0.0,
2011-09-02, 03:06:05,VALID,1007.915,VALID,0.0,VALID,104.0,VALID,0.0,VALID,24.279,VALID,288.0,VALID,0.0,
2011-09-02, 03:07:05,VALID,1007.913,VALID,0.0,VALID,104.0,VALID,0.0,VALID,24.259,VALID,288.0,VALID,0.0,
2011-09-02, 03:08:05,VALID,1007.897,VALID,0.0,VALID,104.0,VALID,0.0,VALID,24.279,VALID,288.0,VALID,0.0,
2011-09-02, 03:09:05,VALID,1007.93,VALID,0.0,VALID,104.0,VALID,0.0,VALID,24.28,VALID,288.0,VALID,0.0,
2011-09-02, 03:10:05,VALID,1007.917,VALID,0.0,VALID,104.0,VALID,0.0,VALID,24.259,VALID,288.0,VALID,0.0,
2011-09-02, 03:11:05,VALID,1007.863,VALID,0.0,VALID,104.0,VALID,0.0,VALID,24.279,VALID,288.0,VALID,0.0,
2011-09-02, 03:12:05,VALID,1007.853,VALID,0.0,VALID,104.0,VALID,0.0,VALID,24.279,VALID,288.0,VALID,0.0,
2011-09-02, 03:13:05,VALID,1007.872,VALID,0.0,VALID,104.0,VALID,0.0,VALID,24.24,VALID,288.0,VALID,0.0,
2011-09-02, 03:14:05,VALID,1007.833,VALID,0.0,VALID,104.0,VALID,0.0,VALID,24.259,VALID,288.0,VALID,0.0,
2011-09-02, 03:15:05,VALID,1007.86,VALID,0.0,VALID,104.0,VALID,0.0,VALID,24.259,VALID,288.0,VALID,0.0,
2011-09-02, 03:16:05,VALID,1007.856,VALID,0.0,VALID,104.0,VALID,0.0,VALID,24.24,VALID,288.0,VALID,0.0,
2011-09-02, 03:17:05,VALID,1007.846,VALID,0.0,VALID,104.0,VALID,0.0,VALID,24.28,VALID,288.0,VALID,0.0,
2011-09-02, 03:18:05,VALID,1007.888,VALID,0.0,VALID,104.0,VALID,0.0,VALID,24.261,VALID,288.0,VALID,0.0,
2011-09-02, 03:19:05,VALID,1007.883,VALID,0.0,VALID,104.0,VALID,0.0,VALID,24.259,VALID,288.0,VALID,0.0,
2011-09-02, 03:20:05,VALID,1007.885,VALID,0.0,VALID,104.0,VALID,0.0,VALID,24.259,VALID,288.0,VALID,0.0,
2011-09-02, 03:21:05,VALID,1007.919,VALID,0.0,VALID,104.0,VALID,0.0,VALID,24.24,VALID,288.0,VALID,0.0,
2011-09-02, 03:22:05,VALID,1007.932,VALID,0.0,VALID,104.0,VALID,0.0,VALID,24.259,VALID,288.0,VALID,0.018,
2011-09-02, 03:23:05,VALID,1007.917,VALID,0.0,VALID,104.0,VALID,0.0,VALID,24.259,VALID,288.0,VALID,0.225,
2011-09-02, 03:24:05,VALID,1007.917,VALID,0.0,VALID,104.0,VALID,0.0,VALID,24.261,VALID,288.0,VALID,0.23,
2011-09-02, 03:25:05,VALID,1007.948,VALID,0.0,VALID,104.0,VALID,0.0,VALID,24.241,VALID,288.0,VALID,0.28,
2011-09-02, 03:26:05,VALID,1007.958,VALID,0.0,VALID,104.0,VALID,0.0,VALID,24.222,VALID,288.0,VALID,0.191,
2011-09-02, 03:27:05,VALID,1007.949,VALID,0.0,VALID,104.0,VALID,0.0,VALID,24.203,VALID,288.0,VALID,0.115,
2011-09-02, 03:28:05,VALID,1007.962,VALID,0.0,VALID,104.0,VALID,0.0,VALID,24.181,VALID,288.0,VALID,0.163,
2011-09-02, 03:29:05,VALID,1007.993,VALID,0.0,VALID,104.0,VALID,0.0,VALID,24.183,VALID,288.0,VALID,0.27,
2011-09-02, 03:30:05,VALID,1008.026,VALID,0.0,VALID,104.0,VALID,0.0,VALID,24.142,VALID,288.0,VALID,0.324,
2011-09-02, 03:31:05,VALID,1008.042,VALID,0.0,VALID,104.0,VALID,0.0,VALID,24.123,VALID,288.0,VALID,0.114,
2011-09-02, 03:32:05,VALID,1008.062,VALID,0.0,VALID,104.0,VALID,0.0,VALID,24.164,VALID,288.0,VALID,0.34,
2011-09-02, 03:33:05,VALID,1008.035,VALID,0.0,VALID,104.0,VALID,0.0,VALID,24.162,VALID,288.0,VALID,0.462,
2011-09-02, 03:34:05,VALID,1008.066,VALID,0.0,VALID,104.0,VALID,0.0,VALID,24.162,VALID,288.0,VALID,0.262,
2011-09-02, 03:35:05,VALID,1008.039,VALID,0.0,VALID,104.0,VALID,0.0,VALID,24.162,VALID,288.0,VALID,0.0,
2011-09-02, 03:36:05,VALID,1008.072,VALID,0.0,VALID,104.0,VALID,0.0,VALID,24.181,VALID,288.0,VALID,0.0,
2011-09-02, 03:37:05,VALID,1008.039,VALID,0.0,VALID,104.0,VALID,0.0,VALID,24.162,VALID,288.0,VALID,0.0,
2011-09-02, 03:38:05,VALID,1008.027,VALID,0.0,VALID,104.0,VALID,0.0,VALID,24.181,VALID,288.0,VALID,0.0,
2011-09-02, 03:39:05,VALID,1008.021,VALID,0.0,VALID,104.0,VALID,0.0,VALID,24.162,VALID,288.0,VALID,0.0,
2011-09-02, 03:40:05,VALID,1008.02,VALID,0.0,VALID,104.0,VALID,0.0,VALID,24.162,VALID,288.0,VALID,0.0,
2011-09-02, 03:41:05,VALID,1007.993,VALID,0.0,VALID,104.0,VALID,0.0,VALID,24.142,VALID,288.0,VALID,0.0,
2011-09-02, 03:42:05,VALID,1007.992,VALID,0.0,VALID,104.0,VALID,0.0,VALID,24.181,VALID,288.0,VALID,0.0,